XM-5

Last updated on Fri Jul 10 2026 00:03:02 GMT+0000 (Coordinated Universal Time)

1 37185U 10053A 26190.04706829 -.00000009 00000+0 00000+0 0 9995 2 37185 0.0614 268.3491 0001851 310.6043 329.7828 1.00270780 57705
UTC large
Height (km)
Speed (km/s)
/
Latitude / Longitude
Inclination (degrees)
Orbital Period (minutes)
Azimuth
Elevation
Range (km)
Doppler Factor

Next 0 passes for location: London (51.5072 / 0.1276)

No passes found over London.
XM-5